Station WKXA1 - Safe Harbor Met Station, Weeks Bay Reserve, AL Image indicating link to RSS feed of recent meteorological observations for station WKXA1


Conditions at WKXA1 as of
(1:45 am CDT)
0645 GMT on 06/23/2024:
     

Click on the graph icon in the table below to see a time series plot of the last five days of that observation.

5-day plot - Wind Speed Wind Speed (WSPD): 0.0 kts
5-day plot - Atmospheric Pressure Atmospheric Pressure (PRES):30.03 in
5-day plot - Air Temperature Air Temperature (ATMP): 75.6 °F
5-day plot - Dew Point Dew Point (DEWP): 75.2 °F
5-day plot -  Wind Speed, Wind Gust and Atmospheric Pressure Combined plot of Wind Speed, Gust, and Air Pressure
Previous observations
TIME
(CDT)
5-day plot - Wind Direction
WDIR
 
5-day plot - Wind Speed
WSPD
kts
5-day plot - Wind Gust
GST
kts
5-day plot - Wave Height
WVHT
ft
5-day plot - Dominant Wave Period
DPD
sec
5-day plot - Average Wave Period
APD
sec
5-day plot - Mean Wave Direction
MWD
 
5-day plot - Atmospheric Pressure
PRES
in
5-day plot - Pressure Tendency
PTDY
in
5-day plot - Air Temperature
ATMP
°F
5-day plot - Water Temperature
WTMP
°F
5-day plot - Dew Point
DEWP
°F
5-day plot - Salinity
SAL
psu
5-day plot - Visibility
VIS
nmi
5-day plot - Tide (above MLLW)
TIDE
ft
2024-06-23 01:30 am- 0.0-----30.03- 75.6- 75.2---
2024-06-23 01:15 am- 0.0-----30.03- 75.9- 75.4---
2024-06-23 01:00 am- 0.0-----30.03-0.03 75.9- 75.0---
2024-06-23 12:45 am- 0.0-----30.03- 76.5- 75.6---
2024-06-23 12:30 am- 0.0-----30.03- 76.8- 75.6---
2024-06-23 12:15 am- 0.0-----30.03- 77.4- 75.9---
2024-06-23 12:00 am- 0.0-----30.03+0.00 77.7- 75.9---
2024-06-22 11:45 pm- 0.0-----30.03- 77.9- 75.7---
2024-06-22 11:30 pm- 0.0-----30.06- 78.6- 76.1---
2024-06-22 11:15 pm- 0.0-----30.06- 78.8- 76.1---
2024-06-22 11:00 pm- 0.0-----30.06+0.06 78.8- 76.1---
2024-06-22 10:45 pm- 0.0-----30.06- 79.0- 75.9---
2024-06-22 10:30 pm- 0.0-----30.06- 79.0- 75.6---
2024-06-22 10:15 pm- 0.0-----30.06- 78.8- 75.0---
2024-06-22 10:00 pm- 0.0-----30.06+0.06 78.6- 74.8---
2024-06-22 09:45 pm- 0.0-----30.03- 78.6- 74.1---
2024-06-22 09:30 pm- 0.0-----30.03- 79.2- 74.1---
2024-06-22 09:15 pm- 0.0-----30.03- 80.1- 74.3---
2024-06-22 09:00 pm- 0.0-----30.03+0.03 81.1- 74.1---
2024-06-22 08:45 pm- 0.0-----30.03- 82.0- 73.9---
2024-06-22 08:30 pm- 0.0-----30.03- 82.4- 73.9---
2024-06-22 08:15 pm- 0.0-----30.03- 82.9- 74.1---
2024-06-22 08:00 pm- 0.0-----30.00+0.00 83.5- 73.8---
2024-06-22 07:45 pm- 0.0-----30.00- 84.2- 74.5---
2024-06-22 07:30 pm- 0.0-----30.00- 84.9- 74.7---
2024-06-22 07:15 pmSSW 1.9-----30.00- 85.6- 75.0---
2024-06-22 07:00 pmSSW 1.9-----30.00-0.03 86.5- 75.4---
2024-06-22 06:45 pm SW 1.0-----30.00- 87.3- 75.2---
2024-06-22 06:30 pmSSW 1.9-----30.00- 88.0- 75.6---
2024-06-22 06:15 pm S 1.9-----30.00- 88.2- 75.2---
2024-06-22 06:00 pm S 1.9-----30.00-0.03 88.7- 75.4---
2024-06-22 05:45 pm S 1.9-----30.00- 89.2- 74.8---
2024-06-22 05:30 pm S 2.9-----30.00- 89.2- 73.4---
2024-06-22 05:15 pm S 2.9-----30.00- 89.6- 73.2---
2024-06-22 05:00 pm S 2.9-----30.00-0.06 89.2- 73.0---
2024-06-22 04:45 pmSSW 2.9-----30.03- 89.4- 73.6---
2024-06-22 04:30 pm S 2.9-----30.03- 90.0- 74.1---
2024-06-22 04:15 pm SW 2.9-----30.03- 89.4- 73.6---
2024-06-22 04:00 pmSSW 2.9-----30.03-0.03 90.3- 73.4---
2024-06-22 03:45 pm S 2.9-----30.03- 90.5- 73.2---
2024-06-22 03:30 pm S 2.9-----30.03- 91.2- 73.8---
2024-06-22 03:15 pmSSW 2.9-----30.03- 90.9- 72.5---
2024-06-22 03:00 pmSSW 2.9-----30.03-0.06 91.0- 71.4---
2024-06-22 02:45 pmSSW 2.9-----30.03- 91.4- 70.7---
2024-06-22 02:30 pmSSW 2.9-----30.06- 91.2- 71.1---
2024-06-22 02:15 pmSSW 2.9-----30.06- 91.0- 70.3---
2024-06-22 02:00 pm S 2.9-----30.06-0.06 91.6- 72.5---
2024-06-22 01:45 pm S 4.1-----30.06- 91.4- 72.9---
2024-06-22 01:30 pm S 2.9-----30.06- 91.8- 73.2---
2024-06-22 01:15 pm S 2.9-----30.06- 91.2- 74.3---
2024-06-22 01:00 pm S 4.1-----30.06-0.06 91.0- 74.1---
2024-06-22 12:45 pm SW 1.9-----30.09- 91.0- 72.5---
2024-06-22 12:30 pmSSW 2.9-----30.09- 91.0- 72.5---
2024-06-22 12:15 pm S 1.9-----30.09- 91.4- 73.4---
2024-06-22 12:00 pm S 1.9-----30.09-0.03 91.6- 72.0---
2024-06-22 11:45 amSSE 1.9-----30.09- 91.6- 71.4---
2024-06-22 11:30 amSSW 1.9-----30.09- 90.3- 71.4---
2024-06-22 11:15 amSSE 1.0-----30.09- 90.0- 71.1---
2024-06-22 11:00 am S 1.9-----30.12+0.00 89.4- 72.7---
2024-06-22 10:45 amESE 1.9-----30.12- 88.5- 70.7---
2024-06-22 10:30 am- 0.0-----30.12- 87.8- 72.1---
2024-06-22 10:15 amNNE 1.0-----30.12- 86.5- 74.1---
2024-06-22 10:00 amENE 1.0-----30.12+0.00 85.6- 74.7---
2024-06-22 09:45 am- 0.0-----30.12- 84.9- 75.2---
2024-06-22 09:30 amENE 1.0-----30.12- 83.5- 75.0---
2024-06-22 09:15 amNNE 1.9-----30.12- 82.0- 74.7---
2024-06-22 09:00 amNNE 1.9-----30.12+0.03 81.1- 75.2---
2024-06-22 08:45 amNNE 1.9-----30.12- 80.6- 76.1---
2024-06-22 08:30 amNNE 1.9-----30.12- 79.7- 76.6---
2024-06-22 08:15 amNNE 1.9-----30.12- 79.0- 76.8---
2024-06-22 08:00 am- 0.0-----30.12+0.03 78.3- 77.0---
2024-06-22 07:45 am- 0.0-----30.12- 77.2- 76.8---
2024-06-22 07:30 am- 0.0-----30.12- 75.7- 75.7---
2024-06-22 07:15 am- 0.0-----30.12- 74.1- 74.1---
2024-06-22 07:00 am- 0.0-----30.12+0.03 72.3- 72.3---
2024-06-22 06:45 am- 0.0-----30.09- 70.9- 70.9---
2024-06-22 06:30 am- 0.0-----30.09- 70.2- 70.2---
2024-06-22 06:15 am- 0.0-----30.09- 70.0- 70.0---
2024-06-22 06:00 am- 0.0-----30.09+0.00 69.8- 69.8---
2024-06-22 05:45 am- 0.0-----30.09- 70.0- 70.0---
2024-06-22 05:30 am- 0.0-----30.09- 70.0- 70.0---
2024-06-22 05:15 am- 0.0-----30.09- 70.0- 70.0---
2024-06-22 05:00 am- 0.0-----30.09+0.00 70.0- 70.0---
2024-06-22 04:45 am- 0.0-----30.09- 70.2- 70.2---
2024-06-22 04:30 am- 0.0-----30.09- 70.2- 70.2---
2024-06-22 04:15 am- 0.0-----30.09- 70.3- 70.3---
2024-06-22 04:00 am- 0.0-----30.09-0.03 70.5- 70.5---
2024-06-22 03:45 am- 0.0-----30.09- 70.5- 70.5---
2024-06-22 03:30 am- 0.0-----30.09- 70.7- 70.7---
2024-06-22 03:15 am- 0.0-----30.09- 70.7- 70.7---
2024-06-22 03:00 am- 0.0-----30.09-0.03 70.9- 70.9---
2024-06-22 02:45 am- 0.0-----30.09- 71.1- 71.1---
2024-06-22 02:30 am- 0.0-----30.09- 71.4- 71.4---
2024-06-22 02:15 am- 0.0-----30.09- 71.6- 71.6---
2024-06-22 02:00 am- 0.0-----30.09-0.03 71.8- 71.8---